IRIDIUM 86 [+] (25528 NORAD) Tracking and Keplerian Element Data

This shows tracking and keplerian element data for the satellite.

Feedback or suggestion? Click here.




ElementValue
Catalog25528
NameIRIDIUM 86 [+]
Epoch Orbit3580
Epoch Day198.56104715
Epoch Year2018
RAAN184.4994
Inclination86.397
Eccentricity0.000298
Argument of Perigee95.6384
Mean Anonmoly264.5152
Mean Motion14.34220267
Decay Rate-1.7E-07
L11 25528U 98066B 18198.56104715 -.00000017 00000-0 -13286-4 0 9991
L22 25528 86.3970 184.4994 0002980 95.6384 264.5152 14.34220267 35802

Live tracking and technical data element details for IRIDIUM 86 [+] (NORAD 25528). IRIDIUM 86 [+] can be tracked NOW for your location showing map with azimuth and elevation plus other details from your city location.

Track the satellite on the map from your city or location and see movement details for azimuth, elevation, latitude, longitude, range, height, and movement on the map or in text.







IsCatalogInMostPopularTable: catalog: 25528, numindb: 32
Update: records affected: 1



GetName: 25528 IRIDIUM 86 [+]

Hit Count: updated at: Fri, 20 Jul 2018 07:05:20 GMT